AAL2315 KJFK-KMIA

Flight info

Callsign AAL2315
Flight time N/A
Altitude 38000
Route WAVEY EMJAY Q167 KALDA Q101 SKARP Y313 HOAGG BNFSH3
Aircraft B77W/H-SDE1E2E3FGHIJ2J3J4J5M1RWXY/LB1D1

Departure

Time 2026-05-03 21:41
Airport John F. Kennedy International Airport (KJFK)

Arrival

Time N/A
Airport Miami International Airport (KMIA)
Time Latitude Longitude Altitude Speed Heading
2026-05-03 20:32 40.64777 -73.79345 21 ft 0 kts 151°
2026-05-03 21:23 40.64790 -73.79355 22 ft 4 kts 151°
2026-05-03 21:23 40.64812 -73.79371 23 ft 2 kts 151°
2026-05-03 21:23 40.64830 -73.79382 22 ft 4 kts 175°
2026-05-03 21:23 40.64843 -73.79382 24 ft 4 kts 223°
2026-05-03 21:24 40.64855 -73.79359 24 ft 4 kts 241°
2026-05-03 21:24 40.64865 -73.79335 26 ft 0 kts 241°
2026-05-03 21:27 40.64865 -73.79336 26 ft 1 kts 241°
2026-05-03 21:27 40.64859 -73.79349 24 ft 5 kts 241°
2026-05-03 21:27 40.64838 -73.79400 24 ft 5 kts 241°
2026-05-03 21:27 40.64809 -73.79468 21 ft 9 kts 241°
2026-05-03 21:28 40.64788 -73.79517 22 ft 9 kts 240°
2026-05-03 21:28 40.64778 -73.79541 20 ft 0 kts 240°
2026-05-03 21:28 40.64776 -73.79545 20 ft 3 kts 240°
2026-05-03 21:29 40.64755 -73.79595 21 ft 8 kts 240°
2026-05-03 21:29 40.64721 -73.79673 20 ft 8 kts 240°
2026-05-03 21:29 40.64682 -73.79708 20 ft 8 kts 180°
2026-05-03 21:29 40.64635 -73.79682 22 ft 7 kts 144°
2026-05-03 21:30 40.64590 -73.79639 20 ft 9 kts 144°
2026-05-03 21:30 40.64524 -73.79603 21 ft 12 kts 172°
2026-05-03 21:30 40.64445 -73.79594 20 ft 11 kts 175°
2026-05-03 21:30 40.64369 -73.79592 20 ft 11 kts 184°
2026-05-03 21:31 40.64294 -73.79598 20 ft 11 kts 182°
2026-05-03 21:31 40.64221 -73.79603 20 ft 10 kts 184°
2026-05-03 21:31 40.64145 -73.79609 21 ft 12 kts 181°
2026-05-03 21:31 40.64060 -73.79585 21 ft 13 kts 155°
2026-05-03 21:32 40.63992 -73.79513 21 ft 13 kts 129°
2026-05-03 21:32 40.63943 -73.79418 21 ft 13 kts 123°
2026-05-03 21:32 40.63897 -73.79318 22 ft 13 kts 120°
2026-05-03 21:32 40.63851 -73.79216 21 ft 13 kts 121°
2026-05-03 21:33 40.63805 -73.79116 21 ft 13 kts 121°
2026-05-03 21:33 40.63760 -73.79016 21 ft 13 kts 121°
2026-05-03 21:33 40.63714 -73.78916 21 ft 13 kts 121°
2026-05-03 21:33 40.63670 -73.78817 21 ft 12 kts 121°
2026-05-03 21:34 40.63625 -73.78719 21 ft 12 kts 121°
2026-05-03 21:34 40.63579 -73.78616 21 ft 14 kts 121°
2026-05-03 21:34 40.63526 -73.78500 21 ft 15 kts 121°
2026-05-03 21:34 40.63471 -73.78380 21 ft 16 kts 121°
2026-05-03 21:35 40.63415 -73.78256 21 ft 16 kts 121°
2026-05-03 21:35 40.63360 -73.78135 23 ft 14 kts 121°
2026-05-03 21:35 40.63332 -73.78045 21 ft 12 kts 104°
2026-05-03 21:35 40.63331 -73.77945 21 ft 11 kts 78°
2026-05-03 21:36 40.63330 -73.77853 21 ft 10 kts 114°
2026-05-03 21:36 40.63296 -73.77778 21 ft 10 kts 122°
2026-05-03 21:36 40.63258 -73.77698 21 ft 11 kts 121°
2026-05-03 21:36 40.63219 -73.77614 21 ft 11 kts 121°
2026-05-03 21:37 40.63182 -73.77530 21 ft 10 kts 118°
2026-05-03 21:37 40.63147 -73.77449 21 ft 10 kts 120°
2026-05-03 21:37 40.63111 -73.77372 21 ft 10 kts 121°
2026-05-03 21:37 40.63077 -73.77297 21 ft 9 kts 121°
2026-05-03 21:38 40.63043 -73.77223 21 ft 9 kts 121°
2026-05-03 21:38 40.63010 -73.77149 21 ft 9 kts 120°
2026-05-03 21:38 40.62986 -73.77096 23 ft 6 kts 125°
2026-05-03 21:38 40.62948 -73.77089 21 ft 5 kts 197°
2026-05-03 21:39 40.62914 -73.77113 21 ft 4 kts 209°
2026-05-03 21:39 40.62907 -73.77118 21 ft 0 kts 209°
2026-05-03 21:40 40.62881 -73.77138 21 ft 8 kts 209°
2026-05-03 21:40 40.62834 -73.77172 21 ft 7 kts 211°
2026-05-03 21:40 40.62824 -73.77228 21 ft 6 kts 291°
2026-05-03 21:41 40.62881 -73.77354 23 ft 39 kts 301°
2026-05-03 21:41 40.63163 -73.77981 23 ft 117 kts 301°
2026-05-03 21:41 40.63674 -73.79105 254 ft 154 kts 303°
2026-05-03 21:41 40.64238 -73.80326 986 ft 158 kts 302°
2026-05-03 21:42 40.64837 -73.81607 1641 ft 171 kts 301°
2026-05-03 21:42 40.65437 -73.82960 2352 ft 171 kts 299°
2026-05-03 21:42 40.65682 -73.84519 2870 ft 187 kts 265°
2026-05-03 21:42 40.65041 -73.86014 3618 ft 197 kts 229°
2026-05-03 21:43 40.63814 -73.86963 4190 ft 213 kts 208°
2026-05-03 21:43 40.62336 -73.87554 4669 ft 231 kts 198°
2026-05-03 21:43 40.60670 -73.87682 5154 ft 256 kts 178°
2026-05-03 21:43 40.58853 -73.87044 5597 ft 281 kts 158°
2026-05-03 21:44 40.57180 -73.85573 6149 ft 303 kts 136°
2026-05-03 21:44 40.55981 -73.83309 7080 ft 300 kts 113°
2026-05-03 21:44 40.55190 -73.80682 7322 ft 329 kts 109°
2026-05-03 21:44 40.54370 -73.77690 7232 ft 366 kts 108°
2026-05-03 21:45 40.53502 -73.74365 7161 ft 401 kts 107°
2026-05-03 21:45 40.52644 -73.70839 7089 ft 398 kts 106°
2026-05-03 21:45 40.51812 -73.67443 6920 ft 383 kts 106°
2026-05-03 21:45 40.50992 -73.64174 6859 ft 367 kts 107°
2026-05-03 21:46 40.50199 -73.60971 5988 ft 376 kts 106°
2026-05-03 21:46 40.49428 -73.57799 6097 ft 354 kts 106°
2026-05-03 21:46 40.48601 -73.54862 5837 ft 344 kts 115°